www.pogodaiklimat.ru
ПОГОДА в Астории
Время
и дата
01:55 27.05
02:55 27.05
03:14 27.05
03:55 27.05
04:13 27.05
04:51 27.05
04:55 27.05
05:37 27.05
05:55 27.05
06:55 27.05
07:55 27.05
08:55 27.05
09:55 27.05
10:55 27.05
11:55 27.05
12:55 27.05
13:55 27.05
14:55 27.05
15:55 27.05
16:55 27.05
17:55 27.05
18:55 27.05
19:55 27.05
20:55 27.05
21:55 27.05
22:55 27.05
23:55 27.05
00:55 28.05
01:26 28.05
01:36 28.05
01:55 28.05
02:40 28.05
02:55 28.05
03:09 28.05
03:45 28.05
03:55 28.05
04:39 28.05
04:55 28.05
05:02 28.05
05:55 28.05
06:53 28.05
06:55 28.05
07:29 28.05
07:55 28.05
08:36 28.05
08:48 28.05
08:55 28.05
09:02 28.05
Ветер
(напр.,м/с)
Видим. Явления Облачность Т
(С)
Тd
(С)
f
(%)
Тe
(С)
Тes
(С)
Комфортность P
(гПа)
Po
(гПа)
Тmin
(С)
Tmax
(С)
R
(мм)
R24
(мм)
S
(см)
ЮВ 2 16 км 10/10 1050 м +9.4 +7.8 90 +8 +8 1020.6 1020.2
ЮВ 2 16 км 10/10 1020 м +9.4 +7.8 90 +8 +8 1020.7 1020.2
ЮВ 2 16 км 10/10 720 м +9.4 +7.8 90 +8 +8 1020.2
ЮВ 2 16 км 10/10 840 м +10.0 +7.8 86 +8 +8 1020.6 1020.2 +9.4 +11.1
штиль 0 16 км 10/10 870 м +10.0 +8.3 89 +9 +9 1020.2
В 3 16 км 10/10 750 м +10.0 +8.0 87 +8 +8 1020.2
В 2 16 км 10/10 750 м +10.0 +7.8 86 +8 +8 1020.7 1020.2
В 2 16 км 10/10 720 м +10.6 +7.8 83 +9 +9 1020.5
ЮВ 2 16 км 10/10 1320 м +10.6 +8.3 86 +9 +9 1020.8 1020.5
штиль 0 16 км 10/10 1050 м +11.7 +8.9 83 +11 +11 1021.2 1020.9
нст 2 16 км 10/10 1380 м +13.9 +10.0 77 +13 +13 1021.4 1020.9
С 3 16 км 10/10 1290 м +15.0 +10.0 72 +14 +14 1021.5 1021.2
З 4 16 км 10/10 690 м +15.0 +10.0 72 +14 +14 1021.6 1021.2 +10.0 +15.6
З 4 16 км 10/10 1080 м +15.6 +10.0 69 +15 +15 1021.6 1021.2
ЮЗ 4 16 км 8/8 1260 м +15.6 +11.1 75 +15 +17 1021.5 1021.2
ЮЗ 4 16 км 2/2 1110 м +16.7 +10.6 67 +16 +26 1021.2 1020.9
З 5 16 км ясно +16.7 +11.1 70 +16 +25 1021.0 1020.5
З 4 16 км 2/2 510 м +15.6 +10.6 72 +15 +23 1020.7 1020.2
СЗ 3 16 км 2/2 570 м +16.7 +10.0 65 +17 +25 1020.4 1019.8 +14.4 +17.2
З 4 16 км ясно +16.1 +10.0 67 +15 +21 1019.9 1019.5
СЗ 4 16 км 2/2 510 м +14.4 +9.4 72 +13 +16 1019.6 1019.2
З 3 16 км ясно +13.9 +9.4 74 +13 +15 1019.6 1019.2
З 3 16 км ясно +12.8 +9.4 80 +11 +12 1019.5 1019.2
З 2 16 км ясно +11.7 +8.9 83 +11 +11 1019.6 1019.2
ЮЗ 2 16 км ясно +11.7 +8.9 83 +11 +11 1019.6 1019.2 +11.1 +16.7
ЮЗ 3 16 км ясно +10.6 +8.3 86 +9 +9 1019.6 1019.2
штиль 0 16 км ясно +10.0 +8.3 89 +9 +9 1019.3 1018.8
штиль 0 16 км ясно +10.0 +8.3 89 +9 +9 1019.0 1018.5
ЮВ 2 16 км 8/8 420 м +10.0 +8.3 89 +8 +8 1018.5
Ю 2 16 км 5/5 420 м +10.0 +8.3 89 +8 +8 1018.5
Ю 2 16 км ясно +10.0 +8.3 89 +8 +8 1019.0 1018.5
Ю 2 16 км 8/8 630 м +10.0 +8.3 89 +8 +8 1018.5
Ю 2 16 км 8/8 630 м +10.0 +8.3 89 +8 +8 1018.8 1018.5
ЮВ 2 16 км 2/2 480 м +10.0 +8.3 89 +8 +8 1018.5
ЮВ 2 16 км 8/8 390 м +10.0 +8.3 89 +8 +8 1018.5
ЮВ 2 16 км 10/8 420 m
[Ac]
+10.0 +8.9 93 +8 +8 1019.0 1018.5 +10.0 +11.7
ЮВ 2 14 км слабый дождь 10/8 480 m
[Ac Ns]
+10.6 +8.9 89 +9 +9 1018.5
ЮВ 2 16 км слабый дождь 10/8 690 m
[Ac Ns]
+10.6 +8.9 89 +9 +9 1019.0 1018.5
Ю 2 16 км слабый дождь 10/8 390 m
[Ac Ns]
+10.6 +8.9 89 +9 +9 1018.8
Ю 2 11 км слабый дождь 10/10 330 m
[Ns]
+11.7 +10.6 93 +10 +10 1019.4 1018.8
Ю 2 11 км слабый дождь 10/10 510 m
[Ns]
+12.0 +11.0 94 +11 +11 1019.2
Ю 2 13 км слабый дождь 10/10 510 m
[Ns]
+11.7 +10.6 93 +10 +10 1019.4 1019.2 1.0
Ю 3 10 км слабый дождь, дымка 10/10 390 m
[Ns]
+12.2 +11.1 93 +11 +11 1019.2
ЮЗ 4 6 км слабый дождь, дымка 10/10 270 m
[Ns]
+12.2 +10.6 90 +10 +10 1019.8 1019.5
СЗ 4 5 км слабый дождь, дымка 10/10 240 m
[Ns]
+11.7 +10.0 89 +9 +9 1019.5
СЗ 3 4 км слабый дождь, дымка 10/10 210 m
[Ns]
+11.7 +10.6 93 +10 +10 1019.5
СЗ 3 4 км слабый дождь, дымка 10/10 210 m
[Ns]
+11.7 +10.6 93 +10 +10 1020.1 1019.8
З 4 6 км слабый дождь, дымка 10/10 210 m
[Ns]
+11.1 +10.0 93 +9 +9 1019.8
Местоположение метеостанции Astoria Regional Airport: широта 46.1569 долгота -123.8825 высота над уровнем моря 3 м.
В архиве по умолчанию представлена погода в Астории за последние 1-2 суток. Обновление информации о фактической погоде в базе происходит ежечасно! Архивные данные за месяц целиком и за предыдущие месяцы Вы можете получить, выбрав интересующий диапазон дат из раскрывающегося списка и нажав кнопку "Ввод!".
Внимание! Архив погоды МЕТАР в базе сайта по станциям, не включенным в климатический монитор, хранится не более 60 дней. Нет смысла пытаться выбрать более раннюю дату.
*Определитесь, кто Вы:
Внимание! Время в таблицах - местное (без учета летнего времени). Для получения всемирного времени необходимо вычесть поправку, которая равна -8 ч.
Смотрите также архив погоды в соседних городах и на ближайших метеорологических станциях:
Партнеры нашего сайта:      
Пояснения к столбцам:
  • Ветер - указаны скорость ветра в м/с - средняя за 10 мин, порывы в срок и между сроками (в фигурных скобках) и направление, откуда дует ветер: С - северный,
  • СВ - северо-восточный, В - восточный, ЮВ - юго-восточный, Ю - южный, ЮЗ - юго-западный, З - западный, СЗ - северо-западный.
  • Видимость - горизонтальная дальность видимости в метрах или километрах. При видимости от 1 до 10 км при отсутствии осадков обычно наблюдается дымка, при ухудшении видимости до 1 км и менее - туман. В сухую погоду видимость может ухудшаться дымом, пылью или мглою.
  • Явления - указаны атмосферные явления, наблюдавшиеся в срок или в последний час перед сроком; фигурными скобками обозначены явления, наблюдавшиеся между сроками (за 1-3 часа до срока); квадратными скобками обозначены град или гололедные отложения с указанием их диаметра в мм.
  • Облачность - указаны через наклонную черту общая и нижняя облачность в баллах и высота нижней границы облаков в метрах; квадратными скобками обозначены формы облаков: Ci - перистые, Cs - перисто-слоистые, Cc - перисто-кучевые, Ac - высококучевые, As - высокослоистые, Sc - слоисто-кучевые, Ns - слоисто-дождевые, Cu - кучевые, Cb - кучево-дождевые. Подробнее классификацию облаков см. в Атласе облаков (PDF).
  • T - Температура воздуха - температура, измеренная на высоте 2 м над землей.
  • Td - Температура точки росы - температура, при понижении до которой содержащийся в воздухе водяной пар достигнет насыщения.
  • f - Относительная влажность воздуха - влажноcть воздуха, измеренная на высоте 2 м над землей.
  • Te - Эффективная температура - температура, которую ощущает одетый по сезону человек в тени. Характеристика душности погоды. При расчете учитывается влияние влажности воздуха и скорости ветра на теплоощущения человека.
  • Tes - Эффективная температура на солнце - температура, которую ощущает человек, с поправкой на солнечный нагрев. Характеристика знойности погоды. Зависит от высоты солнца над горизонтом, облачности и скорости ветра. Ночью, в пасмурную погоду, а также при ветре 12 м/с и более поправка равна нулю.
  • P - Атмосферное давление - приведенное к уровню моря атмосферное давление.
  • Po - Атмосферное давление - измеренное на уровне метеостанции атмосферное давление.
  • Tmin - Минимальная температура - минимум температуры воздуха на высоте 2 м над землей.
  • Tmax - Максимальная температура - максимум температуры воздуха на высоте 2 м над землей.
  • R - Количество осадков - Количество выпавших осадков за период времени, мм. При наведении курсора мыши на число - период времени, за который выпало указанное количество осадков.
  • R24 - Количество осадков - Количество выпавших осадков за 24 часа, мм.
  • S - Снежный покров - Высота снежного покрова, см. При наведении курсора мыши на число - состояние снежного покрова и степень покрытия местности в баллах.